Location: Baia Mare
(47.6567°N, 23.5850°E)
Time: 19:02:57
(UTC+03:00)

ISS - Pass Details

Date: 24 May 2018
Orbit: 402 x 407 km, 51.6° (Epoch: 23 May)

Event Time Altitude Azimuth Distance (km) Brightness Sun altitude
Rises 03:58:53 0° 288° (WNW) 2,319 -0.2 -13.1°
Enters shadow 04:00:20 - 280° (W) 1,773 -0.9 -13.0°
Exits shadow 04:07:35 - 158° (SSE) 1,876 -0.7 -12.2°
Sets 04:08:43 0° 153° (SSE) 2,303 -0.2 -12.1°
